DIRECTV 9S              
1 29494U 06043A   19265.48582955 -.00000121  00000-0  00000+0 0  9994
2 29494   0.0203 215.0281 0003030 333.6634 246.0814  1.00271884 47443
OPTUS D1                
1 29495U 06043B   19265.06785782 -.00000117  00000-0  00000+0 0  9997
2 29495   0.0200 264.4269 0003467 279.8538   0.8083  1.00272225 47470
ARIANE 5 R/B            
1 29498U 06043E   19265.14051358  .00003034  00000-0  29549-3 0  9997
2 29498   6.6332 181.7079 6564628  69.1384 346.6032  3.25477875130483